Location: Henham
(51.9333°N, 0.2500°E)
Time: 07:01:52
(UTC+00:00)

NOSS 3-2 (C) - Pass Details

Date: 23 October 2019
Orbit: 818 x 1394 km, 63.4° (Epoch: 11 November)

Event Time Altitude Azimuth Distance (km) Brightness Sun altitude
Rises 20:09:43 0° 242° (WSW) 3,470 6.9 -31.2°
Reaches altitude 10° 20:12:07 10° 246° (WSW) 2,590 6.2 -31.5°
Maximum altitude 20:18:04 59° 326° (NW) 1,144 3.9 -32.3°
Enters shadow 20:19:11 52° 4° (N) 1,247 4.0 -32.5°
